Vertical_Velocity
-1 -0 -1 -0 6 1 -0 -2 0 1 2 -1 1 -4 -10 -2 -6 -1 2 0 2 -0 -3 0 1 2 1 0 2 2 2 1 1 2 3 2 1 0 0 -0 -1 -1 1 2 1 -2 -0 -1 -1
-1 -1 1 -2 0 1 -1 -1 -0 -3 -1 0 1 1 1 2 -1 2 0 1 2 1 -2 -1 -1 0 0 -0 2 2 1 1 1 -0 -0 -0 -0 -1 -0 -0 -0 0 -1 -1 -2 -2 -1 0 2
-2 -1 1 -2 -1 -0 -1 -1 -0 0 1 2 -1 1 -1 1 1 -1 -2 1 3 1 0 1 0 -1 -1 -0 0 -0 1 1 0 -1 -0 -2 -3 -0 0 1 0 3 1 -2 -2 0 1 1 1
-1 -2 -4 2 -1 -4 -1 -0 -1 2 2 -0 -0 2 0 -3 -1 -4 -1 -2 2 0 0 0 -1 0 1 -1 0 1 -0 1 -1 1 -1 2 1 -1 -1 -0 0 -1 -0 2 1 1 1 0 -0
-1 -1 -0 0 -2 -2 -1 -1 -1 0 -1 1 -1 1 2 1 -1 1 -5 0 -2 -2 1 -0 -1 0 -2 1 0 -0 -0 -1 -1 1 -0 -2 -1 -2 1 -0 -1 0 -0 -0 1 0 1 0 -1
0 -2 1 -0 -1 -2 -1 -0 -1 -0 1 1 1 -0 0 2 -1 -1 -0 -1 1 -1 -0 -0 -1 0 -2 0 0 1 -1 0 1 -1 -2 -2 -2 -1 -2 -0 -0 0 -0 -1 -1 -1 -3 -1 -2
-2 -0 -1 -0 -1 -1 -1 -1 -0 -1 -0 -2 -0 -1 1 4 0 0 -0 1 0 1 1 -2 -1 -2 -1 -1 1 3 0 -0 -0 0 -0 -1 -3 -0 0 -2 -1 -1 -0 -1 -1 -1 -2 -1 -1
-2 -0 1 -1 -1 -4 1 1 -1 0 -0 3 -0 -2 -1 -5 -1 1 1 1 2 2 1 1 1 -2 -0 -2 -2 4 1 2 -0 -0 1 1 -2 -0 0 1 -1 -0 0 -1 -1 0 -1 -1 0
-0 1 0 -2 1 -2 -0 1 -1 -0 -0 -1 -1 1 -0 -0 -3 3 2 2 1 1 2 -1 -1 4 1 -1 -4 3 -1 2 1 0 -1 0 -1 -1 -1 -3 -4 -3 -2 -2 -2 -1 -1 -1 -2
1 1 -4 -2 -1 -1 -1 3 3 1 1 0 -0 2 3 -0 -1 -1 -3 -2 0 -1 0 1 0 0 2 4 -1 -3 2 1 2 1 0 -1 -1 -2 -1 -1 0 -1 -0 -0 0 0 0 -0 0
0 -1 -2 -2 -1 -1 -1 -0 -0 0 1 -7 -7 -4 3 1 -0 -0 1 1 2 4 -1 -2 -1 -1 1 -0 5 -3 -1 1 0 1 1 -1 1 1 -1 -0 -1 -1 -1 -1 -1 -0 0 -0 -0
3 -1 -0 -3 2 1 0 0 -0 1 -7 -1 3 3 -3 -4 -7 -1 0 -1 -6 -2 2 -0 -3 0 -1 1 1 3 -4 -1 1 -1 2 2 -0 -1 -1 -1 -0 -1 -1 -2 -2 -1 -2 -1 -2
4 -2 1 -2 -0 -1 4 -3 -3 -7 1 1 2 2 0 3 1 -0 4 6 -3 -2 -1 -0 -1 -0 1 1 -1 3 1 -4 0 1 1 1 -1 -0 1 1 0 -0 -0 -0 -1 -1 -1 -1 -0
0 0 -3 -3 -4 -0 5 -3 2 -6 -1 0 -0 2 1 -1 1 3 -3 0 -4 2 -0 1 -1 -1 -1 1 -0 0 3 2 0 1 1 3 -0 -0 -1 2 1 -1 -3 -3 -2 -2 -2 -2 -2
-1 1 -3 -2 -2 -3 7 5 -2 1 1 -1 -2 1 2 1 0 -4 8 3 1 2 1 0 0 -2 1 2 3 -1 3 4 2 -1 1 1 -0 -2 -3 -2 -1 -1 -1 -2 -1 1 2 1 0
3 4 2 -3 1 -2 4 -12 -6 3 5 1 2 1 1 -2 4 4 4 3 -0 1 -1 2 1 -3 1 -1 3 2 0 3 2 1 -1 -0 1 0 1 -0 -1 -1 -1 0 -0 -0 0 0 0
1 -1 1 -7 -0 0 5 -2 0 -1 -1 -2 -2 -1 2 3 -2 -3 -0 1 2 2 -2 -1 2 -3 2 2 3 0 -0 3 2 1 0 1 -1 -1 -1 -2 -3 -3 -3 -2 -2 -2 -2 -1 -2
-2 1 0 -1 1 -1 -1 -5 -6 1 1 -3 1 1 -2 -1 -10 7 2 3 3 2 3 4 3 1 1 -0 2 3 1 1 0 1 -2 -1 1 0 -1 -1 -0 -0 -1 -1 -2 -2 -2 -1 -1
0 2 1 -5 -7 5 -1 -1 -5 -4 3 1 -1 -1 -3 -10 20 1 1 -1 -1 0 1 2 2 -1 -1 -0 -1 3 -0 1 1 0 0 -1 2 1 -0 -1 -3 -3 -2 -1 -1 -1 -1 -2 -1
2 1 -7 -7 -3 5 -1 -8 -5 -0 -4 -4 -3 -2 -6 5 -2 -0 2 3 2 4 2 -1 2 0 -0 1 -0 0 1 -0 2 2 0 -2 -1 -1 -1 -3 -2 -1 -2 -2 -3 -2 -1 -1 -0
-1 1 -2 1 -6 -2 4 -6 0 -3 2 3 -0 -2 6 0 -2 -3 -5 -4 2 -4 -5 -2 -3 -2 1 -1 1 1 2 3 -2 -0 -1 -1 -1 -0 -0 -1 -1 -3 -1 -0 -0 0 -1 -3 -2
6 -3 1 1 5 1 2 -9 -5 -3 -3 1 -2 0 -8 -3 1 1 1 -6 -7 6 7 4 -0 -3 -1 2 -0 2 -0 -2 1 3 0 -0 -0 1 -1 -0 -0 -0 -0 -2 -3 0 -3 -2 -1
-9 0 -1 0 1 8 -5 12 -10 1 -1 -4 -3 -3 -4 -3 3 -4 -7 7 5 -4 1 8 5 2 3 -0 2 -1 -0 2 4 -1 0 -0 -0 -0 -2 -2 -2 -1 -3 -2 0 1 -7 1 -1
-1 1 1 1 1 8 -8 8 -8 -1 -4 -2 -2 3 5 6 3 5 6 4 2 2 1 3 1 2 2 4 1 0 0 1 -2 -2 -1 -0 -0 -1 -1 -2 -1 -2 -2 -1 2 -5 -3 -2 -3
-1 -2 -1 4 6 -7 0 8 -11 -2 0 4 3 1 -2 -1 5 1 -1 -1 2 -3 1 1 1 -1 0 0 -1 -1 1 1 2 -0 -1 -2 -2 -2 -1 -2 -2 -3 -4 -1 -1 -3 -3 0 1
-6 -8 -1 -1 -1 -2 -0 -4 -2 4 3 2 3 6 5 0 -1 3 4 3 1 2 3 6 -0 1 -1 1 1 3 4 -0 1 3 0 1 2 1 -0 -0 -2 -1 -1 3 -3 -0 -4 -2 0
-1 7 -12 7 -1 12 -6 -8 -1 -2 -1 -3 -0 -3 -4 -1 -5 -1 3 2 4 3 3 9 7 8 5 4 3 1 3 -1 -3 -1 3 4 1 -1 -1 -0 3 -2 1 -7 0 0 -2 -3 -1
1 0 2 3 3 2 -1 -1 -2 -0 1 -1 -4 -1 -1 -1 -3 -3 -3 1 1 0 1 2 3 -0 3 5 3 1 1 2 1 2 1 -1 1 2 -2 1 -1 -2 -0 -1 4 -2 -4 -3 -2
-8 -2 -1 4 3 2 -1 0 -2 2 4 3 1 1 1 0 -2 -1 -4 -3 -1 -1 -1 2 5 1 -2 -3 1 1 0 -1 4 2 -0 5 6 0 4 1 1 2 -1 -2 -0 -3 -0 -3 -2
1 0 0 4 2 0 3 -6 -2 1 3 2 -0 -1 -1 1 -1 -2 1 -5 -3 -1 -2 -2 5 3 4 8 4 2 4 8 5 8 8 3 2 5 1 1 2 5 3 -0 -2 3 2 -1 -6
Height
1509 1508 1508 1509 1513 1512 1511 1505 1503 1500 1501 1499 1500 1503 1504 1508 1511 1516 1514 1516 1521 1526 1530 1534 1537 1539 1540 1542 1543 1544 1545 1546 1547 1547 1547 1547 1547 1548 1549 1549 1550 1550 1551 1550 1550 1549 1549 1549 1548
1508 1507 1508 1508 1513 1512 1505 1502 1498 1495 1497 1498 1502 1504 1507 1509 1511 1512 1514 1515 1520 1525 1529 1532 1535 1538 1540 1542 1543 1543 1544 1545 1545 1546 1547 1547 1547 1548 1549 1549 1550 1550 1550 1550 1549 1549 1549 1549 1549
1507 1507 1508 1508 1518 1508 1503 1498 1494 1497 1498 1498 1501 1503 1506 1508 1510 1512 1514 1516 1521 1524 1528 1531 1534 1536 1538 1541 1542 1543 1543 1544 1544 1545 1546 1546 1547 1548 1549 1549 1549 1550 1549 1549 1549 1549 1548 1548 1548
1505 1508 1510 1508 1509 1503 1501 1495 1496 1499 1500 1498 1499 1502 1504 1505 1508 1510 1514 1517 1520 1523 1526 1529 1532 1535 1537 1539 1541 1542 1543 1544 1544 1544 1545 1546 1547 1547 1548 1548 1548 1548 1548 1548 1547 1547 1546 1546 1546
1505 1505 1509 1511 1508 1501 1496 1494 1495 1495 1495 1497 1498 1500 1503 1504 1507 1510 1514 1517 1520 1523 1525 1527 1531 1533 1536 1538 1540 1541 1542 1542 1543 1544 1544 1545 1546 1547 1547 1547 1547 1547 1547 1547 1546 1546 1545 1545 1545
1503 1505 1509 1509 1504 1499 1492 1492 1492 1493 1493 1497 1499 1499 1503 1503 1506 1508 1513 1515 1519 1521 1523 1526 1529 1532 1535 1537 1538 1539 1540 1541 1542 1542 1543 1544 1545 1546 1547 1547 1548 1548 1547 1547 1546 1546 1545 1544 1544
1502 1504 1505 1505 1503 1498 1490 1490 1492 1492 1493 1495 1497 1498 1502 1502 1504 1507 1511 1514 1516 1519 1521 1524 1526 1530 1532 1535 1538 1538 1539 1540 1541 1541 1542 1543 1544 1545 1546 1546 1547 1547 1546 1546 1545 1545 1544 1543 1543
1500 1502 1506 1502 1499 1496 1490 1490 1490 1493 1493 1492 1495 1493 1497 1498 1502 1506 1510 1513 1515 1517 1519 1522 1525 1528 1530 1533 1536 1537 1538 1538 1539 1540 1541 1542 1543 1544 1545 1545 1545 1545 1545 1545 1544 1543 1542 1542 1541
1499 1502 1503 1498 1498 1491 1490 1490 1489 1489 1490 1491 1491 1490 1489 1492 1500 1503 1506 1509 1512 1514 1517 1520 1524 1527 1528 1530 1533 1535 1536 1538 1538 1539 1541 1542 1542 1544 1544 1544 1545 1545 1544 1544 1543 1542 1541 1540 1540
1497 1499 1497 1491 1490 1490 1489 1488 1487 1489 1488 1487 1487 1487 1488 1491 1494 1498 1499 1503 1506 1510 1514 1518 1522 1525 1527 1528 1530 1533 1535 1536 1538 1539 1540 1541 1542 1542 1543 1543 1543 1543 1543 1542 1542 1541 1540 1540 1539
1496 1492 1491 1489 1488 1488 1487 1485 1483 1483 1485 1478 1475 1482 1486 1488 1492 1494 1497 1501 1503 1507 1511 1515 1520 1523 1525 1527 1528 1530 1534 1535 1536 1538 1539 1539 1541 1541 1541 1541 1542 1542 1542 1541 1541 1540 1539 1538 1537
1495 1490 1490 1488 1486 1485 1484 1483 1481 1480 1474 1474 1474 1477 1482 1485 1487 1488 1492 1495 1499 1504 1508 1512 1517 1520 1523 1525 1527 1528 1531 1534 1535 1537 1538 1538 1539 1540 1540 1540 1540 1540 1540 1540 1539 1538 1537 1536 1535
1492 1488 1487 1487 1484 1482 1481 1479 1478 1474 1471 1472 1473 1474 1476 1479 1484 1488 1492 1495 1497 1500 1504 1509 1513 1517 1520 1522 1525 1527 1528 1532 1534 1535 1536 1536 1537 1539 1539 1539 1538 1538 1538 1538 1538 1536 1535 1534 1533
1489 1486 1484 1482 1479 1477 1475 1472 1475 1468 1467 1468 1470 1470 1471 1474 1478 1483 1486 1490 1492 1497 1500 1505 1510 1514 1518 1521 1523 1526 1527 1529 1532 1533 1534 1535 1535 1537 1538 1538 1537 1537 1537 1537 1536 1535 1534 1533 1532
1487 1486 1478 1474 1470 1470 1468 1472 1467 1464 1464 1464 1466 1467 1468 1470 1473 1474 1481 1485 1489 1493 1497 1502 1506 1511 1515 1519 1521 1524 1527 1528 1529 1531 1532 1533 1534 1535 1536 1537 1536 1536 1536 1536 1535 1534 1532 1531 1530
1486 1486 1481 1468 1466 1463 1465 1463 1459 1461 1462 1461 1462 1463 1465 1466 1467 1472 1477 1481 1486 1491 1494 1499 1502 1507 1511 1516 1519 1521 1524 1525 1526 1528 1530 1531 1532 1533 1533 1534 1535 1534 1534 1534 1534 1534 1533 1531 1529
1486 1481 1479 1468 1462 1461 1464 1464 1460 1461 1463 1462 1461 1461 1462 1464 1464 1467 1472 1478 1482 1487 1490 1495 1499 1503 1508 1511 1515 1518 1521 1523 1524 1525 1527 1529 1530 1530 1531 1532 1532 1532 1532 1532 1532 1532 1531 1530 1528
1478 1483 1478 1472 1462 1462 1463 1464 1459 1459 1460 1457 1457 1457 1457 1458 1456 1461 1466 1472 1478 1483 1487 1491 1495 1498 1504 1507 1511 1513 1517 1519 1521 1522 1524 1526 1527 1528 1529 1529 1530 1530 1530 1530 1530 1530 1529 1528 1526
1471 1475 1474 1465 1460 1464 1458 1458 1456 1453 1456 1454 1453 1453 1452 1451 1454 1456 1460 1465 1472 1478 1481 1484 1488 1492 1497 1500 1504 1508 1512 1514 1517 1519 1521 1524 1526 1526 1526 1527 1528 1528 1529 1528 1528 1527 1527 1526 1524
1471 1470 1469 1463 1457 1460 1452 1451 1449 1448 1448 1447 1445 1445 1444 1444 1448 1449 1452 1459 1463 1468 1472 1477 1482 1486 1490 1495 1500 1505 1508 1511 1514 1515 1517 1520 1522 1523 1524 1524 1526 1526 1526 1525 1525 1525 1524 1523 1521
1467 1467 1463 1465 1455 1453 1450 1441 1441 1438 1439 1439 1437 1436 1437 1438 1439 1441 1444 1448 1455 1458 1462 1468 1473 1480 1484 1489 1496 1500 1503 1506 1508 1510 1513 1515 1518 1520 1521 1521 1522 1522 1522 1522 1522 1520 1520 1521 1519
1460 1457 1458 1459 1460 1457 1450 1446 1437 1436 1433 1433 1429 1429 1428 1430 1432 1434 1435 1440 1441 1445 1454 1461 1465 1472 1477 1482 1487 1491 1494 1497 1502 1505 1509 1512 1514 1515 1517 1519 1519 1519 1519 1519 1519 1518 1516 1518 1516
1453 1452 1453 1455 1457 1458 1451 1454 1426 1432 1430 1426 1422 1423 1422 1422 1424 1425 1426 1432 1439 1444 1448 1454 1459 1466 1469 1475 1480 1485 1490 1495 1498 1501 1504 1507 1510 1512 1513 1515 1516 1516 1516 1516 1516 1515 1516 1515 1513
1451 1452 1453 1454 1457 1451 1441 1449 1420 1421 1422 1417 1415 1420 1420 1418 1418 1419 1422 1427 1431 1437 1443 1448 1453 1458 1463 1467 1473 1478 1483 1488 1491 1495 1498 1502 1505 1507 1509 1510 1511 1512 1512 1512 1512 1512 1512 1512 1509
1453 1459 1462 1455 1455 1436 1429 1436 1418 1412 1416 1424 1428 1426 1423 1419 1419 1418 1418 1418 1422 1424 1430 1439 1446 1451 1456 1462 1467 1472 1478 1483 1487 1490 1493 1496 1499 1501 1503 1505 1507 1508 1509 1510 1508 1509 1508 1508 1506
1445 1455 1465 1458 1445 1433 1439 1424 1413 1423 1427 1428 1428 1428 1424 1420 1417 1416 1415 1416 1418 1422 1426 1431 1436 1441 1447 1454 1460 1466 1472 1477 1482 1486 1489 1492 1495 1497 1499 1500 1502 1503 1505 1505 1505 1505 1505 1506 1504
1440 1442 1441 1451 1445 1449 1427 1413 1414 1418 1423 1425 1425 1423 1423 1419 1417 1413 1414 1415 1417 1419 1423 1427 1432 1437 1442 1448 1454 1460 1466 1470 1475 1481 1485 1487 1490 1492 1494 1496 1497 1498 1500 1500 1501 1502 1502 1503 1503
1454 1455 1453 1450 1441 1438 1416 1418 1410 1430 1430 1427 1424 1425 1425 1422 1419 1415 1413 1414 1415 1417 1421 1425 1429 1432 1438 1445 1449 1454 1459 1465 1470 1475 1478 1481 1483 1486 1488 1491 1493 1494 1493 1496 1496 1498 1499 1500 1501
1463 1459 1457 1451 1444 1431 1417 1410 1424 1429 1431 1427 1426 1425 1423 1420 1419 1415 1413 1412 1413 1415 1417 1420 1423 1426 1432 1437 1443 1449 1454 1459 1464 1469 1473 1476 1478 1482 1485 1487 1489 1489 1489 1491 1492 1493 1493 1496 1499
1456 1458 1461 1452 1456 1458 1449 1425 1421 1421 1427 1429 1427 1425 1423 1419 1416 1415 1410 1409 1411 1411 1412 1415 1418 1421 1426 1432 1436 1441 1448 1454 1460 1463 1467 1471 1475 1478 1481 1485 1485 1486 1486 1488 1491 1491 1490 1491 1495